Flag for Martinique Weather past 2 weeks in Fort-de-France, Martinique

Now
81 °F

Passing clouds.


Feels Like: 85 °F
Forecast: 80 / 88 °F
Wind: 13 mph from East

Location: Le Lamentin Airport

Current Time: May 29, 2015 at 6:39:27 AM

Latest Report: May 29, 2015 at 6:00 AM


Visibility: N/A

Pressure: 29.95 "Hg

Humidity: 79%

Dew point: 73 °F

Location of Fort-de-FranceLocation

Historic Weather in Fort-de-France — Graph

°F

Fort-de-France temperature yesterday

Maximum temperature yesterday: 84 °F (at 12:30 PM)
Minimum temperature yesterday: 77 °F (at 1:30 AM)
Average temperature yesterday: 80 °F

Past Weeks' High & Low Weather Summary

 TemperatureHumidityPressure
High90 °F (May 19, 1:30 PM)94% (May 27, 4:00 AM)30.09 "Hg (May 27, 4:00 AM)
Low70 °F (May 27, 4:00 AM)46% (May 27, 4:30 PM)29.92 "Hg (May 20, 4:00 PM)
Average82 °F70%30.00 "Hg
* Reported May 14 5:00 AM — May 29 5:30 AM, Fort-de-France, Weather by CustomWeather, © 2015

Note: Actual official high and low records may vary slightly from our data, if they occured in-between our weather recording intervals... More about our weather records

Advertising

Fort-de-France weather history for previous 24 hours

 ConditionsComfort  
Time TempWeatherWind HumidityBarometerVisibility
5:30 AM
Fri, May 29
79 °FPassing clouds.12 mph84%29.92 "HgN/A
5:00 AM81 °FPartly cloudy.14 mph79%29.92 "HgN/A
4:30 AM81 °FPassing clouds.12 mph79%29.92 "HgN/A
4:00 AM81 °FPassing clouds.13 mph79%29.92 "HgN/A
3:30 AM81 °FPassing clouds.12 mph79%29.92 "HgN/A
3:00 AM81 °FPassing clouds.13 mph84%29.92 "HgN/A
2:30 AM79 °FMostly cloudy.13 mph84%29.92 "HgN/A
2:00 AM79 °FMostly cloudy.12 mph89%29.92 "HgN/A
1:30 AM79 °FOvercast.12 mph89%29.95 "HgN/A
1:00 AM81 °FPartly cloudy.16 mph84%29.95 "HgN/A
12:30 AM81 °FMostly cloudy.15 mph84%29.98 "HgN/A
12:00 AM79 °FPassing clouds.10 mph89%29.98 "HgN/A
11:30 PM
Thu, May 28
79 °FOvercast.6 mph89%29.98 "HgN/A
11:00 PM79 °FMostly cloudy.6 mph89%30.01 "HgN/A
10:30 PM79 °FLight rain. Overcast.6 mph89%30.01 "HgN/A
10:00 PM77 °FRain. Passing clouds.3 mph94%30.01 "HgN/A
9:30 PM77 °FLight rain. Partly cloudy.10 mph89%30.01 "HgN/A
9:00 PM77 °FRain. Partly cloudy.7 mph89%30.01 "HgN/A
8:30 PM77 °FLight rain. Partly cloudy.3 mph89%29.98 "Hg5 mi
8:00 PM77 °FLight rain. Fog.3 mph89%30.01 "Hg1 mi
7:30 PM77 °FLight rain. Passing clouds.5 mph89%29.98 "Hg4 mi
6:00 PM79 °FRain. Fog.3 mph89%29.95 "Hg3 mi
5:30 PM79 °FBroken clouds.10 mph84%29.95 "HgN/A
5:00 PM82 °FBroken clouds.10 mph79%29.92 "HgN/A
4:30 PM82 °FBroken clouds.13 mph79%29.92 "HgN/A
4:00 PM84 °FBroken clouds.14 mph70%29.92 "HgN/A
3:30 PM84 °FBroken clouds.14 mph70%29.92 "HgN/A
3:00 PM84 °FPartly sunny.14 mph70%29.92 "HgN/A
2:30 PM84 °FPartly sunny.13 mph74%29.95 "HgN/A
2:00 PM84 °FMore clouds than sun.13 mph74%29.95 "HgN/A
1:30 PM84 °FPartly sunny.15 mph74%29.95 "HgN/A
1:00 PM84 °FPartly sunny.14 mph74%29.95 "HgN/A
12:30 PM84 °FPartly sunny.10 mph74%29.95 "HgN/A
12:00 PM81 °FPartly sunny.14 mph84%29.98 "HgN/A
11:30 AM81 °FMore clouds than sun.9 mph89%29.98 "HgN/A
11:00 AM79 °FBroken clouds.10 mph89%29.98 "HgN/A
10:30 AM82 °FMostly cloudy.N/A84%29.98 "HgN/A
10:00 AM81 °FPartly sunny.6 mph84%29.98 "HgN/A
9:30 AM81 °FBroken clouds.6 mph89%30.01 "HgN/A
9:00 AM79 °FLight rain. Broken clouds.7 mph84%29.98 "HgN/A
8:30 AM79 °FMostly cloudy.6 mph89%29.98 "HgN/A
8:00 AM77 °FLight rain. Mostly cloudy.7 mph89%29.98 "HgN/A
7:30 AM79 °FLight rain. Broken clouds.12 mph84%29.98 "HgN/A
7:00 AM81 °FPartly sunny.3 mph79%29.95 "HgN/A
6:30 AM79 °FMore clouds than sun.3 mph84%29.95 "HgN/A
6:00 AM79 °FLight rain. Cloudy.5 mph84%29.95 "HgN/A
Weather by CustomWeather, © 2015

See weather overviewHow to use our weather pages